Temp
91 91 83 84 84 84 84 83 83 83 83 83 83 83 83 83 83 83 84 84 84 84 84 84 84 84 84 84 84 84 84 84 84 84 84 84 84 83 83 84 85 91 83
96 92 83 83 84 84 84 83 83 83 83 83 83 83 84 83 83 83 84 84 84 84 84 84 84 85 84 84 84 85 85 84 84 84 85 85 84 84 84 84 87 88 83
96 93 89 83 84 84 84 83 83 84 84 83 84 84 84 84 83 84 84 84 84 84 84 84 84 84 84 84 84 84 84 84 84 85 86 95 91 84 83 83 83 83 83
97 96 93 82 83 83 83 83 83 84 84 84 84 84 84 84 84 84 84 84 84 84 84 84 84 85 84 84 84 84 84 84 84 85 95 97 95 83 83 83 83 83 83
97 98 92 83 83 83 84 84 84 84 84 84 84 84 84 84 84 84 84 84 84 84 84 84 85 84 85 84 84 84 84 84 84 88 94 94 96 86 83 83 82 83 84
97 99 85 83 84 84 84 84 84 84 84 84 84 84 84 84 84 84 84 84 84 84 84 84 84 84 84 84 84 84 85 84 83 94 93 90 96 83 83 83 84 83 82
98 98 90 83 83 84 84 84 84 84 84 84 84 84 84 84 84 84 84 84 84 84 84 84 84 84 84 83 84 84 84 84 92 92 94 94 92 83 83 83 83 83 82
99 97 86 84 83 84 84 84 84 83 84 83 83 84 84 84 84 84 83 84 84 84 84 84 83 84 84 84 84 83 83 84 90 92 93 96 83 83 83 83 83 83 82
99 92 87 90 87 84 84 84 83 83 83 83 84 84 84 84 84 84 84 84 84 84 84 84 84 83 84 84 84 84 83 83 93 95 95 96 80 82 84 83 83 83 82
95 94 92 90 90 89 87 83 83 82 81 83 83 84 83 84 84 84 83 84 84 84 84 84 84 83 84 83 83 84 84 83 93 95 95 94 80 81 83 84 83 82 82
93 95 93 92 92 87 79 79 79 77 77 78 79 83 84 92 92 89 87 83 84 84 84 84 84 83 83 83 83 83 84 94 96 96 97 79 80 82 83 83 84 83 82
90 93 87 89 85 85 79 72 72 74 73 74 72 77 83 90 92 93 88 83 82 83 83 84 84 83 84 94 92 85 93 91 91 94 98 80 80 82 83 83 83 83 82
93 93 89 89 87 82 73 73 70 71 69 71 73 76 86 86 93 89 86 84 77 86 89 89 89 92 94 96 97 97 96 94 96 98 89 80 80 82 83 83 83 83 83
92 92 92 93 87 85 80 81 73 75 73 74 74 80 82 86 92 90 77 85 85 90 89 90 94 93 91 91 92 91 93 95 97 98 91 81 80 82 83 83 83 83 83
92 93 93 92 84 83 81 79 76 78 80 85 81 85 87 92 89 91 86 84 85 90 92 88 91 91 90 91 92 91 92 93 94 98 99 82 81 82 82 83 83 83 83
93 92 93 91 88 86 86 81 75 81 83 83 92 92 89 91 90 89 78 81 90 94 92 91 89 91 91 94 91 91 91 93 93 92 96 94 81 81 82 83 83 84 84
94 94 92 91 92 88 87 80 79 87 88 85 90 90 88 87 87 85 78 83 83 90 87 89 88 90 91 93 90 92 93 92 94 92 93 97 95 81 82 82 83 83 83
94 91 91 93 93 90 89 87 87 86 85 90 90 90 89 87 87 85 83 81 87 90 91 91 91 90 91 92 92 92 92 94 92 91 94 95 97 99 84 82 82 82 83
93 91 90 90 91 89 87 89 88 88 88 90 91 91 89 88 88 84 83 89 86 90 91 92 87 83 87 89 92 93 93 93 93 95 93 93 95 95 99 82 81 82 83
92 92 90 91 89 87 89 87 89 90 90 91 91 91 89 90 88 86 84 87 88 85 90 91 85 83 89 89 91 92 91 93 94 93 94 96 96 94 96 94 91 90 81
92 91 90 88 87 87 87 87 88 88 87 85 90 86 83 87 87 86 85 85 85 85 87 86 85 82 84 83 82 91 92 92 92 93 94 95 95 95 97 95 94 96 91
92 91 89 88 87 86 86 89 90 89 91 87 82 81 78 86 87 88 86 86 87 84 86 86 84 80 86 91 84 88 85 91 92 93 94 92 93 96 95 94 94 93 93
92 90 89 88 87 86 87 89 88 88 87 88 88 90 89 87 88 87 87 86 84 83 82 86 86 81 75 85 86 82 80 83 88 92 91 92 93 94 95 94 94 93 92
94 93 91 89 87 86 85 88 85 86 81 89 87 89 91 88 88 89 88 88 85 87 87 87 89 83 76 72 86 88 86 85 84 85 90 92 93 93 95 95 95 94 94
96 94 93 89 87 87 86 85 88 85 91 91 90 88 84 87 87 89 87 88 87 89 88 85 81 83 79 73 80 86 85 88 86 83 84 89 91 93 96 96 97 97 97
97 95 93 89 85 86 87 85 85 84 84 89 85 88 89 89 92 88 88 85 88 89 87 87 85 85 78 82 81 86 85 88 90 87 87 89 92 94 96 96 96 98 98
MSLP
1014.07 1014.76 1015.68 1015.86 1016.05 1016.38 1016.59 1016.81 1017.04 1017.27 1017.37 1017.56 1017.80 1018.07 1018.31 1018.51 1018.69 1018.88 1018.94 1019.08 1019.13 1019.17 1019.19 1019.14 1019.14 1019.18 1019.12 1019.24 1019.33 1019.49 1019.54 1019.77 1020.12 1020.21 1020.23 1020.38 1020.51 1020.50 1020.61 1020.60 1020.35 1020.52 1021.29
1013.52 1014.82 1015.86 1016.00 1016.21 1016.54 1016.81 1017.06 1017.37 1017.52 1017.66 1017.78 1018.08 1018.34 1018.52 1018.75 1018.99 1019.15 1019.28 1019.37 1019.41 1019.45 1019.43 1019.40 1019.38 1019.38 1019.39 1019.49 1019.61 1019.83 1019.90 1020.06 1020.23 1020.48 1020.47 1020.63 1020.95 1021.02 1020.97 1020.94 1020.72 1021.23 1021.62
1013.64 1014.77 1015.65 1016.17 1016.41 1016.62 1016.85 1017.14 1017.44 1017.82 1017.96 1018.17 1018.37 1018.59 1018.83 1018.99 1019.28 1019.49 1019.53 1019.64 1019.67 1019.67 1019.70 1019.65 1019.66 1019.61 1019.68 1019.80 1019.98 1020.09 1020.33 1020.48 1020.57 1020.58 1020.33 1019.84 1020.76 1021.40 1021.52 1021.49 1021.54 1021.70 1021.83
1013.50 1014.72 1015.39 1016.37 1016.70 1016.95 1017.16 1017.38 1017.66 1017.91 1018.31 1018.63 1018.75 1018.83 1019.03 1019.19 1019.46 1019.65 1019.73 1019.82 1019.84 1019.90 1019.89 1019.83 1019.86 1019.90 1019.92 1020.06 1020.21 1020.39 1020.55 1020.75 1020.87 1020.66 1019.71 1019.70 1020.51 1021.72 1021.85 1021.85 1021.95 1022.13 1022.14
1013.71 1014.34 1015.80 1016.65 1017.00 1017.23 1017.44 1017.69 1017.91 1018.22 1018.49 1018.89 1019.09 1019.18 1019.32 1019.49 1019.62 1019.75 1019.89 1019.94 1019.99 1019.96 1020.00 1020.01 1020.05 1020.09 1020.12 1020.15 1020.33 1020.48 1020.66 1020.81 1020.94 1020.48 1020.07 1020.01 1020.17 1021.72 1021.95 1022.02 1022.19 1022.20 1022.25
1014.00 1014.24 1016.56 1016.91 1017.10 1017.42 1017.66 1017.87 1018.19 1018.46 1018.75 1019.08 1019.29 1019.48 1019.65 1019.69 1019.77 1019.82 1019.94 1020.00 1020.06 1020.05 1020.05 1020.05 1020.06 1020.14 1020.25 1020.33 1020.43 1020.60 1020.77 1020.96 1020.94 1020.13 1020.28 1020.62 1020.02 1021.70 1021.95 1022.09 1022.21 1022.33 1022.57
1013.86 1014.48 1016.49 1017.19 1017.37 1017.67 1017.94 1018.22 1018.44 1018.70 1018.99 1019.27 1019.51 1019.72 1019.81 1019.83 1019.82 1019.92 1019.97 1020.05 1020.06 1020.06 1020.00 1020.11 1020.19 1020.21 1020.41 1020.61 1020.69 1020.86 1021.07 1021.07 1020.26 1020.27 1020.16 1020.34 1020.69 1021.74 1021.93 1022.18 1022.31 1022.51 1022.75
1013.75 1014.80 1016.81 1017.36 1017.56 1017.84 1018.15 1018.42 1018.73 1018.99 1019.21 1019.47 1019.66 1019.89 1019.98 1020.03 1019.93 1019.98 1020.01 1020.06 1020.04 1020.07 1020.11 1020.14 1020.25 1020.28 1020.39 1020.52 1020.70 1020.97 1021.04 1021.23 1020.71 1020.35 1020.37 1020.09 1021.42 1021.77 1022.02 1022.21 1022.37 1022.57 1022.84
1013.97 1015.60 1016.89 1017.20 1017.64 1018.12 1018.40 1018.90 1019.19 1019.33 1019.59 1019.72 1019.89 1020.05 1020.16 1020.15 1020.09 1020.08 1020.04 1020.01 1020.06 1020.11 1020.17 1020.29 1020.39 1020.47 1020.46 1020.52 1020.76 1020.98 1021.14 1021.22 1020.45 1020.08 1020.21 1020.31 1021.60 1021.95 1022.03 1022.22 1022.34 1022.57 1022.78
1014.79 1015.44 1016.14 1017.19 1017.74 1017.87 1018.72 1019.31 1019.60 1019.85 1020.03 1020.02 1020.16 1020.11 1020.23 1020.22 1020.16 1020.13 1020.16 1019.97 1020.04 1020.14 1020.20 1020.34 1020.41 1020.58 1020.59 1020.72 1020.82 1020.99 1021.10 1021.20 1020.23 1020.04 1020.27 1020.38 1021.66 1022.02 1022.08 1022.19 1022.35 1022.60 1022.76
1014.87 1015.21 1015.77 1016.40 1016.90 1018.11 1018.92 1019.56 1020.00 1020.01 1020.36 1020.48 1020.59 1020.41 1020.29 1019.32 1019.08 1019.69 1019.60 1019.94 1020.10 1020.18 1020.30 1020.32 1020.44 1020.59 1020.70 1020.76 1020.79 1020.88 1020.96 1019.74 1019.63 1019.76 1019.62 1020.75 1021.66 1022.01 1022.12 1022.23 1022.29 1022.53 1022.67
1014.70 1015.08 1016.53 1016.78 1017.41 1017.86 1019.27 1019.37 1020.40 1020.69 1021.03 1020.92 1020.78 1020.87 1020.36 1018.79 1018.77 1018.74 1019.38 1020.03 1020.05 1020.13 1020.27 1020.37 1020.42 1020.56 1020.55 1019.29 1019.94 1020.68 1019.95 1019.63 1019.76 1019.45 1019.47 1020.70 1021.44 1021.83 1022.00 1022.10 1022.20 1022.35 1022.52
1014.35 1014.98 1016.31 1016.81 1017.51 1018.20 1018.96 1019.79 1020.35 1020.90 1021.30 1021.41 1021.22 1020.99 1019.99 1019.72 1018.81 1019.31 1019.65 1019.88 1020.22 1019.96 1019.84 1019.83 1020.03 1019.60 1019.02 1018.95 1019.08 1018.80 1019.35 1019.61 1019.28 1019.09 1019.80 1020.87 1021.28 1021.51 1021.69 1021.87 1022.03 1022.15 1022.31
1014.21 1014.78 1015.63 1016.03 1017.10 1017.97 1018.83 1019.20 1020.15 1020.66 1020.94 1020.98 1020.73 1020.66 1020.03 1019.53 1018.73 1018.83 1019.91 1019.80 1019.85 1019.57 1019.49 1019.68 1019.13 1019.21 1019.47 1019.67 1019.56 1019.71 1019.65 1019.25 1019.11 1019.04 1019.52 1020.76 1021.21 1021.30 1021.40 1021.55 1021.69 1021.86 1021.99
1014.09 1014.67 1015.22 1015.72 1017.07 1017.78 1018.43 1019.03 1019.80 1019.81 1019.93 1019.64 1019.97 1019.66 1019.41 1018.57 1018.78 1018.61 1019.26 1019.45 1019.62 1019.28 1019.06 1019.66 1019.43 1019.44 1019.54 1019.55 1019.58 1019.75 1019.62 1019.43 1019.37 1019.09 1019.01 1020.28 1020.86 1021.10 1021.15 1021.22 1021.33 1021.52 1021.66
1014.03 1014.56 1015.25 1015.96 1016.60 1017.08 1017.60 1018.58 1019.33 1019.39 1019.28 1018.87 1018.29 1018.35 1019.09 1018.69 1018.49 1018.55 1019.62 1019.71 1019.09 1018.97 1019.07 1019.38 1019.51 1019.09 1019.26 1018.95 1019.24 1019.53 1019.57 1019.33 1019.35 1019.42 1019.19 1019.26 1020.18 1020.61 1020.81 1020.91 1020.98 1021.15 1021.31
1013.95 1014.55 1015.22 1015.92 1016.30 1016.92 1017.22 1018.27 1018.86 1018.71 1018.62 1018.62 1018.34 1018.55 1018.89 1018.85 1018.73 1018.92 1019.59 1019.40 1019.63 1019.08 1019.51 1019.42 1019.56 1019.38 1019.09 1018.87 1019.05 1019.09 1019.10 1019.18 1019.05 1019.28 1019.28 1018.92 1018.73 1019.82 1020.27 1020.50 1020.61 1020.82 1021.01
1013.63 1014.47 1015.24 1015.62 1015.95 1016.72 1016.98 1017.61 1018.06 1018.24 1018.67 1018.06 1018.13 1018.38 1018.56 1018.80 1018.83 1018.91 1019.03 1019.29 1018.91 1018.86 1018.71 1018.66 1018.86 1018.92 1018.77 1018.65 1018.56 1018.59 1018.67 1018.44 1018.68 1018.95 1018.84 1018.64 1018.40 1018.19 1019.55 1020.09 1020.37 1020.54 1020.72
1013.71 1014.31 1014.98 1015.46 1015.79 1016.33 1016.87 1017.18 1017.70 1017.63 1017.86 1017.66 1017.82 1017.86 1018.01 1018.35 1018.46 1018.87 1018.90 1018.61 1018.85 1018.48 1018.32 1018.20 1018.73 1019.14 1018.94 1018.68 1018.23 1018.34 1018.33 1018.18 1018.17 1018.17 1018.23 1018.45 1018.32 1018.52 1017.85 1019.26 1019.97 1020.29 1020.38
1013.72 1014.16 1014.76 1015.24 1015.80 1016.24 1016.52 1016.94 1016.86 1016.97 1017.16 1017.29 1017.35 1017.46 1017.78 1017.88 1018.24 1018.45 1018.77 1018.61 1018.66 1018.56 1018.19 1018.20 1018.82 1019.10 1018.80 1018.68 1018.20 1017.79 1018.10 1017.96 1017.81 1017.91 1017.73 1017.69 1017.78 1018.19 1018.18 1018.38 1019.11 1019.42 1019.98
1013.19 1013.80 1014.48 1015.13 1015.65 1016.19 1016.41 1016.32 1016.32 1016.28 1016.63 1017.04 1016.84 1017.53 1018.02 1017.89 1018.04 1018.27 1018.47 1018.40 1018.41 1018.64 1018.28 1018.54 1018.81 1019.04 1018.91 1019.02 1018.92 1017.40 1017.35 1017.46 1017.56 1017.52 1017.50 1017.27 1017.22 1017.53 1017.55 1017.99 1018.36 1018.25 1018.87
1012.49 1013.22 1013.91 1014.57 1015.32 1015.87 1016.02 1016.06 1016.02 1016.05 1016.02 1016.56 1017.25 1017.53 1018.00 1017.54 1017.54 1017.65 1017.91 1018.08 1017.97 1018.34 1018.27 1018.43 1018.75 1018.96 1018.63 1018.30 1018.24 1017.48 1016.66 1016.07 1016.82 1016.93 1016.94 1017.12 1017.08 1016.95 1017.19 1017.55 1017.83 1018.20 1018.32
1011.85 1012.70 1013.34 1014.11 1014.79 1015.37 1015.57 1015.87 1016.14 1016.22 1016.33 1016.04 1016.08 1016.19 1016.43 1017.00 1016.94 1017.10 1017.34 1017.70 1017.89 1018.20 1018.28 1018.21 1018.42 1018.79 1018.95 1018.45 1018.34 1018.15 1017.22 1015.84 1016.24 1016.11 1016.56 1016.73 1016.77 1016.83 1016.79 1017.08 1017.38 1017.67 1017.99
1011.22 1012.17 1013.04 1013.80 1014.44 1014.98 1015.44 1015.23 1015.32 1015.22 1015.56 1014.97 1015.77 1015.84 1015.67 1016.19 1016.38 1016.51 1016.73 1016.95 1017.36 1017.50 1017.49 1017.79 1018.05 1018.43 1018.72 1018.89 1018.12 1018.04 1018.04 1017.69 1016.60 1015.43 1015.86 1016.19 1016.35 1016.43 1016.27 1016.37 1016.56 1017.01 1017.29
1010.89 1011.67 1012.35 1013.26 1013.87 1014.28 1014.77 1015.04 1015.10 1015.20 1014.61 1015.13 1015.24 1015.47 1015.92 1015.78 1016.06 1016.08 1016.52 1016.35 1016.54 1016.75 1016.96 1017.41 1017.86 1018.02 1018.46 1018.91 1018.11 1017.63 1017.75 1017.34 1017.30 1016.70 1015.08 1015.16 1015.91 1015.93 1015.88 1015.99 1015.82 1016.12 1016.35
1010.20 1011.14 1011.95 1012.76 1013.40 1013.84 1014.28 1014.78 1014.88 1014.75 1014.83 1014.56 1015.12 1015.11 1015.05 1015.17 1015.00 1015.53 1016.03 1016.32 1015.94 1015.95 1016.31 1016.63 1017.10 1017.47 1017.89 1017.94 1017.98 1017.41 1017.28 1016.64 1016.29 1016.10 1015.33 1015.01 1014.74 1014.88 1015.20 1015.56 1015.66 1015.51 1015.77
Wind_Speed
14 15 9 12 15 16 16 16 15 15 15 14 14 14 12 11 11 12 13 13 12 11 12 12 14 15 15 14 15 15 14 17 15 14 16 14 15 15 13 11 13 16 14
19 17 12 14 16 16 16 15 14 14 14 14 13 13 12 11 10 10 11 11 11 10 10 11 12 13 14 14 14 14 12 13 15 13 16 17 15 13 10 12 14 15 14
19 18 16 14 16 17 17 16 15 14 13 14 13 13 11 10 9 9 9 9 9 9 9 9 9 11 12 13 13 13 12 12 12 12 12 10 13 11 10 12 13 13 13
19 17 17 13 15 16 16 15 15 15 12 12 12 12 11 10 9 8 8 8 8 8 8 8 7 8 11 12 12 12 12 11 10 10 7 10 13 11 9 10 11 10 11
18 17 18 15 14 15 15 15 14 13 13 12 11 11 10 8 8 7 7 7 7 8 8 7 7 6 8 10 11 11 12 12 9 10 7 6 10 11 10 10 11 9 5
17 17 19 16 17 15 14 14 14 13 12 10 10 9 8 7 7 7 7 7 7 6 5 7 7 6 6 8 10 12 10 10 10 6 6 5 6 13 10 6 8 9 9
17 17 17 15 15 15 14 13 13 12 10 9 8 7 6 6 6 7 8 7 7 7 6 6 6 5 6 8 9 10 7 7 6 5 5 7 12 10 8 8 8 8 8
16 18 14 15 16 15 14 13 11 10 9 8 7 6 6 5 5 6 7 7 7 7 6 6 5 5 5 7 8 10 9 8 7 5 4 6 13 7 7 6 7 7 7
14 17 12 15 14 15 13 11 9 7 7 5 5 5 5 5 5 6 6 7 6 6 6 5 5 5 5 5 7 7 10 10 9 5 6 5 11 4 5 4 5 6 6
13 14 15 12 13 13 11 11 7 3 1 4 5 7 7 6 6 7 7 8 5 6 6 6 6 5 6 6 6 7 7 7 11 7 7 7 9 6 5 5 6 6 6
12 14 12 14 13 12 8 8 10 8 11 10 9 9 8 11 11 11 5 6 5 5 6 6 7 7 6 5 5 6 7 7 5 6 5 16 9 7 7 7 8 8 8
14 14 11 10 7 12 9 9 5 5 3 6 9 9 9 7 6 7 2 4 5 5 6 6 7 6 9 8 9 8 7 4 4 4 4 12 10 10 9 10 10 9 8
15 12 14 13 13 11 8 7 4 2 4 6 11 9 10 7 6 5 2 5 2 6 5 10 10 9 8 4 3 4 3 5 4 4 10 9 10 11 11 12 11 10 9
14 12 14 15 12 13 9 9 8 9 8 7 8 12 7 7 5 4 2 4 2 4 3 2 3 2 5 5 4 4 6 6 4 4 10 11 9 11 12 12 12 11 10
12 12 12 11 11 11 11 8 7 8 9 11 10 13 8 5 4 5 3 2 2 5 3 4 3 5 5 6 6 5 7 6 7 4 3 14 11 11 12 13 13 12 11
11 11 11 11 10 10 10 11 7 7 8 9 6 5 7 6 4 3 1 1 4 2 3 2 5 4 6 6 5 6 6 6 6 6 5 7 14 13 13 14 14 13 12
10 10 10 11 11 10 9 8 7 6 5 6 6 5 7 6 6 4 3 5 4 4 5 5 5 5 6 4 5 5 6 7 6 7 7 7 9 16 13 13 13 12 11
10 10 10 9 11 11 9 8 7 7 5 6 5 7 8 8 6 6 1 4 6 4 4 5 5 5 5 5 5 5 6 6 6 7 8 6 5 5 11 12 12 11 11
10 11 11 11 11 10 9 7 8 7 7 6 5 6 7 8 7 5 5 3 4 4 4 4 1 2 5 2 6 4 5 6 6 8 8 7 6 6 5 16 13 12 13
12 11 11 10 10 10 8 8 7 6 6 6 6 6 6 6 7 6 4 4 5 3 4 4 3 4 4 6 5 5 4 6 5 6 8 8 7 7 7 5 9 11 15
13 12 12 11 11 9 8 8 8 8 6 4 6 7 6 8 8 7 6 5 5 6 4 4 5 5 5 1 6 7 7 8 8 7 6 7 6 8 7 7 6 5 10
14 14 13 13 13 11 8 7 5 5 6 7 6 7 9 10 9 8 8 6 8 5 5 6 5 2 6 7 5 5 6 4 4 8 8 7 7 6 6 8 7 7 6
15 15 14 14 13 13 12 8 7 6 7 7 8 8 9 11 11 10 8 7 7 4 6 5 6 6 3 5 4 4 4 3 6 5 6 8 8 7 7 7 7 8 9
14 13 13 13 13 13 14 11 12 8 7 6 7 7 7 9 11 10 10 9 7 6 6 6 7 6 4 5 4 5 5 5 5 3 6 6 7 8 8 7 7 9 9
11 12 13 13 13 13 14 14 10 12 7 7 5 3 7 5 8 9 11 10 9 8 8 6 7 5 2 5 6 4 4 6 5 5 7 6 6 6 6 7 7 7 10
12 11 11 13 14 14 14 15 14 12 10 7 5 6 6 8 7 10 10 11 10 9 8 8 8 7 4 6 6 3 6 3 1 4 5 3 1 4 5 5 6 6 6
Wind_Direction
151 134 148 146 143 143 140 139 135 137 140 137 131 128 127 119 105 97 94 94 96 94 94 102 103 101 102 107 113 119 119 115 112 103 107 105 95 96 103 117 138 100 93
145 142 146 143 147 143 142 139 138 139 141 139 137 137 136 129 118 110 101 105 104 101 100 97 105 108 110 110 112 115 109 116 117 117 108 101 101 100 96 67 79 99 103
143 136 147 140 142 144 147 145 139 139 141 144 144 144 143 140 133 125 120 118 116 112 109 106 106 114 114 115 120 124 122 118 122 133 161 122 100 100 98 91 92 99 100
142 148 139 135 137 139 145 143 141 143 147 148 145 149 150 151 144 140 137 138 133 124 120 118 118 117 123 120 125 127 131 132 133 165 167 126 114 112 109 104 103 107 109
146 149 123 136 137 140 142 142 142 146 146 144 146 150 154 156 155 152 153 152 146 144 142 137 134 134 136 137 136 139 141 141 154 213 113 113 125 120 127 126 130 131 130
153 149 133 141 140 143 143 144 144 146 148 147 152 154 159 164 166 159 153 149 145 136 143 140 142 147 153 144 148 150 153 145 199 134 138 137 104 130 140 131 104 110 107
158 137 145 151 144 145 147 147 148 149 149 151 157 161 168 172 170 170 153 150 143 152 152 148 148 156 160 162 160 154 139 166 229 142 119 171 108 139 143 140 136 134 137
158 134 148 155 154 152 154 154 152 154 160 158 164 178 184 190 192 181 152 152 163 151 144 135 143 155 160 179 177 184 185 202 214 175 173 168 110 152 156 155 152 155 153
148 133 159 152 157 159 154 149 150 162 164 171 187 207 207 208 206 190 171 169 149 154 150 140 146 153 162 171 179 169 186 193 230 193 190 215 125 145 160 170 160 176 168
157 163 159 152 168 162 149 150 140 133 240 254 233 231 232 225 215 207 198 166 174 173 168 168 157 152 163 163 156 174 177 193 245 198 227 118 137 179 199 200 187 197 193
172 167 162 174 165 147 130 102 75 61 16 345 332 285 246 240 179 164 147 154 186 189 178 194 153 164 181 194 185 173 199 212 203 211 212 124 152 192 212 226 224 202 208
174 168 147 161 193 146 124 110 104 105 322 322 302 293 266 284 311 320 104 173 211 204 169 186 165 179 212 192 174 184 218 219 203 219 196 134 179 211 224 226 234 225 220
171 167 169 166 184 141 145 154 155 143 228 249 246 270 255 258 227 190 233 176 231 195 173 201 174 212 200 279 263 230 223 200 237 216 103 150 195 213 222 227 235 235 232
168 173 165 172 181 163 166 170 175 191 204 217 234 249 235 242 222 232 126 287 193 217 162 229 199 265 246 208 249 239 226 221 218 251 134 159 204 215 221 231 231 231 233
175 174 175 177 174 170 173 158 182 198 202 214 212 219 223 245 246 247 187 258 214 227 188 198 238 209 213 237 226 232 242 236 259 240 242 163 199 226 234 235 227 224 233
180 174 175 184 174 182 178 165 171 194 209 244 220 217 216 250 234 298 268 85 279 222 220 233 217 230 215 231 215 238 243 250 223 250 247 188 193 217 238 241 228 220 234
182 173 177 185 182 191 201 159 178 201 221 244 259 230 242 241 221 264 176 223 255 274 256 221 225 236 251 230 244 236 233 232 235 230 244 250 193 200 222 231 217 213 229
188 179 187 189 187 187 195 167 214 177 238 242 212 240 218 246 257 255 100 226 240 243 215 212 214 216 237 227 230 225 217 237 216 234 244 252 237 260 178 205 210 211 220
196 187 193 190 194 189 194 209 207 227 213 231 229 235 220 236 246 254 270 315 237 222 218 221 150 227 224 251 249 230 244 246 228 233 238 233 226 251 260 165 194 211 220
197 199 198 197 199 195 194 206 218 221 215 227 222 221 231 234 239 247 266 255 257 228 226 218 173 226 257 235 245 227 256 259 247 245 239 227 218 219 232 227 182 205 210
197 203 202 196 193 198 204 207 205 214 210 252 208 230 215 239 239 247 248 249 223 273 271 264 215 209 225 188 295 236 223 226 245 242 238 237 222 222 222 213 239 251 182
196 202 200 203 195 200 211 218 235 233 228 201 217 205 220 239 236 230 240 242 266 243 242 251 246 217 268 222 252 290 270 187 206 237 238 236 237 227 216 211 228 226 252
198 200 204 201 199 204 209 206 204 227 241 208 210 223 204 222 225 223 225 220 238 242 253 240 229 220 200 280 239 254 312 300 329 139 223 226 225 225 226 218 227 227 223
200 194 202 206 200 202 204 214 213 218 218 206 214 232 249 211 221 219 217 221 216 234 264 248 254 227 156 281 245 235 270 306 324 326 158 212 215 230 227 220 224 219 219
191 197 197 199 205 209 203 224 214 232 227 225 224 197 232 253 227 223 227 223 220 221 217 233 262 240 225 217 241 208 231 232 223 285 329 139 201 218 227 225 221 214 212
181 188 196 197 207 204 207 209 223 233 242 258 199 235 226 227 198 217 220 239 237 224 218 227 221 232 203 225 262 277 266 276 256 265 253 194 326 154 189 204 221 213 211